SCP
0 0 0 0 0 0 0 0 0 0 0 0 0 0 0 0 0 0 0 0 0 0 0 0 0 0 0 0 0 0 0 0 0 0 0 0 0 0 0 0 0 0 0 0 0 0 0
0 0 0 0 0 0 0 0 0 0 0 0 0 0 0 0 0 0 0 0 0 0 0 0 0 0 0 0 0 0 0 0 -0 0 0 0 0 0 0 0 0 0 0 0 0 0 0
0 0 0 0 0 0 0 0 0 0 0 0 0 0 0 0 0 0 0 0 0 0 0 0 0 0 0 0 0 0 0 0 0 0 0 0 0 0 0 0 0 0 0 0 0 0 0
0 0 0 0 0 0 0 0 0 0 0 0 0 0 0 0 0 0 0 0 0 0 0 0 0 0 0 0 0 0 0 0 0 0 0 0 0 0 0 0 0 0 0 0 0 0 0
0 0 0 0 0 0 0 0 0 0 0 0 0 0 0 0 0 0 0 0 0 0 0 0 0 0 0 0 0 0 0 0 -0 0 0 0 0 0 0 0 0 0 0 0 0 0 0
0 0 0 0 0 0 0 0 0 0 0 0 0 0 0 0 0 0 0 0 0 0 0 0 0 0 0 0 0 0 0 0 0 0 -0 -0 0 0 0 0 0 0 0 0 0 0 0
0 0 0 0 0 0 0 0 0 0 0 0 0 0 0 0 0 0 0 0 -0 0 0 0 0 0 0 0 0 0 0 0 0 0 -0 0 0 0 0 0 0 0 0 0 0 0 0
0 0 0 0 0 0 0 0 0 0 0 0 0 0 0 0 0 0 0 0 0 0 0 0 0 0 0 0 0 0 0 0 0 0 0 0 0 0 0 0 0 0 0 0 0 0 0
0 0 0 0 0 0 0 0 0 0 0 0 0 0 0 0 0 0 0 0 0 0 0 0 0 0 0 0 0 0 0 0 0 -0 0 0 0 0 0 0 0 0 0 0 0 0 0
0 0 0 0 0 0 0 0 0 0 0 0 0 0 0 0 0 0 0 0 0 0 0 0 0 0 0 0 0 0 0 0 0 0 0 0 0 -0 0 0 0 0 0 0 0 0 0
0 0 0 0 0 0 0 0 0 0 0 0 0 0 0 0 0 0 0 0 0 0 0 0 0 0 0 0 0 -0 0 0 0 0 0 0 0 0 0 0 0 0 0 0 0 0 0
0 0 0 0 0 0 0 0 0 0 0 0 0 0 0 0 0 0 0 0 0 0 0 0 0 0 0 -0 0 0 0 0 0 0 0 0 0 0 0 0 0 0 0 0 0 0 0
0 0 0 0 0 0 0 0 0 0 0 0 0 0 0 0 0 0 0 0 0 0 0 0 0 -0 -0 0 0 0 0 0 0 0 0 0 -0 0 0 0 0 0 0 0 0 0 0
0 0 0 0 0 0 0 0 0 0 0 0 0 0 0 0 0 0 0 0 0 0 0 0 -0 -0 0 0 0 0 0 -0 -0 -0 0 -0 0 -0 -0 0 0 0 0 0 0 0 0
0 0 0 0 0 0 0 0 0 0 0 0 0 0 0 0 0 0 0 0 0 0 0 0 -0 0 0 0 0 0 0 0 0 -0 -0 -0 -0 0 0 0 0 0 0 0 0 0 0
0 0 0 0 0 0 0 0 0 0 0 0 0 0 0 0 0 0 0 0 0 0 0 0 0 0 0 -0 0 0 0 -0 -0 -0 -0 -0 0 0 -0 0 0 0 0 0 0 0 0
0 0 0 0 0 0 0 0 0 0 0 0 0 0 0 0 0 0 0 0 0 0 0 0 0 0 0 0 0 0 0 0 -0 0 -0 0 -0 0 -0 0 0 0 0 0 0 0 0
0 0 0 0 0 0 0 0 0 0 0 0 0 0 0 0 0 0 0 0 0 0 0 -0 -0 0 0 0 0 0 0 0 0 0 -0 -0 -0 0 -0 0 0 0 0 0 0 0 0
0 0 0 0 0 0 0 0 0 0 0 0 0 0 0 0 0 0 0 0 0 0 0 0 0 -0 0 -0 -0 0 0 -0 -0 0 -0 -0 -0 -0 -0 -0 -0 0 0 -0 0 0 0
0 0 0 0 0 0 0 0 0 0 0 0 0 0 0 0 0 0 0 0 0 0 0 -0 0 -0 -0 0 0 0 -0 0 0 -0 -0 -0 -0 0 -0 -0 -0 0 0 0 0 0 0
0 0 0 0 0 0 0 0 0 0 0 0 0 0 0 0 0 0 0 0 0 -0 0 0 0 0 0 -0 0 0 0 -0 -0 0 -0 -0 -0 0 -0 -0 -0 -0 0 0 0 0 0
0 0 0 0 0 0 0 0 0 0 0 0 0 0 0 0 0 0 0 0 0 -0 0 -0 0 -0 0 0 0 -0 0 0 -0 0 -0 -0 -0 -0 -0 -0 0 -0 -0 0 0 0 0
0 0 0 0 0 0 0 0 0 0 0 0 0 0 0 0 0 0 0 0 -0 -0 0 0 0 -0 0 0 0 0 0 -0 0 0 0 -0 -0 -0 -0 0 0 0 -0 0 0 0 0
0 0 0 0 0 0 0 0 0 0 0 0 0 0 0 0 0 0 -0 -0 -0 -0 -0 -0 0 0 0 0 0 0 0 -0 0 -0 -0 0 0 -0 -0 -0 0 0 -0 -0 0 -0 -0
0 0 0 0 0 0 0 0 0 0 -0 0 0 0 0 0 0 -0 -0 -0 -0 0 0 0 0 0 0 0 0 0 0 0 0 -0 0 -0 0 0 0 0 0 0 -0 0 0 0 -0
0 0 0 0 0 0 0 0 0 0 -0 0 0 0 0 0 0 0 -0 0 0 0 0 0 0 0 -0 -0 0 0 0 0 -0 -0 -0 0 -0 0 0 0 0 0 -0 0 -0 0 0
0 0 0 0 0 0 0 0 0 0 -0 0 0 0 0 0 0 -0 0 0 0 0 0 0 -0 -0 -0 -0 -0 -0 0 0 0 0 -0 0 0 0 0 0 0 0 0 -0 0 -0 0
0 0 0 0 0 0 0 0 0 0 -0 0 0 0 0 0 0 -0 -0 0 0 0 0 0 -0 0 -0 -0 -0 -0 -0 0 0 -0 0 -0 0 0 0 0 0 0 0 0 0 0 0
0 0 0 0 0 0 0 0 0 0 -0 0 0 0 0 0 0 0 -0 -0 -0 -0 0 0 0 0 0 -0 0 -0 0 -0 0 0 -0 -0 0 0 0 0 0 -0 -0 -0 0 0 0
Wind_Speed_500mb
34 36 36 37 38 41 38 43 46 48 54 53 54 60 59 60 61 63 67 68 70 71 69 65 55 53 53 32 59 76 67 48 45 38 37 31 31 24 30 12 21 26 13 21 43 62 54
35 34 38 39 37 35 41 46 47 46 48 53 54 61 58 60 61 64 67 67 71 72 71 69 63 54 55 52 57 36 26 56 58 57 49 33 29 32 34 14 26 11 14 50 57 44 26
36 40 38 39 44 40 34 42 44 45 49 52 54 57 57 60 63 66 68 71 73 71 71 72 65 57 60 93 74 70 59 60 34 17 36 34 48 40 16 13 50 38 34 30 42 12 19
39 38 36 41 40 44 42 43 46 43 50 55 55 54 59 57 64 65 67 74 77 75 76 66 48 43 44 55 51 47 35 25 16 33 57 41 30 56 63 51 36 8 7 23 23 33 14
36 36 39 39 44 44 46 48 47 46 49 51 55 58 55 60 63 67 72 77 79 81 60 28 62 24 36 26 25 15 12 56 73 69 70 59 44 45 40 40 34 34 39 38 27 11 16
38 42 39 40 42 44 45 51 51 48 53 52 62 57 59 59 66 69 73 78 81 55 18 54 20 18 22 25 52 79 68 56 44 51 51 38 14 20 30 33 43 49 46 44 43 13 23
45 42 47 47 46 44 49 46 53 49 51 54 57 57 58 61 63 69 73 83 44 23 60 37 78 69 93 67 57 48 50 41 20 6 7 11 14 37 57 54 51 40 42 38 25 18 28
45 45 48 49 48 45 44 48 54 51 52 59 59 56 60 61 65 65 59 65 28 41 51 63 76 74 71 52 34 58 20 18 12 17 9 7 31 48 38 42 45 51 52 48 35 17 23
44 45 46 54 53 56 47 53 46 50 51 60 63 58 59 64 68 53 73 30 36 49 21 49 33 30 19 3 19 57 20 30 13 17 32 28 25 21 39 47 50 44 50 54 33 12 34
46 42 44 48 48 59 49 54 54 56 55 58 63 58 63 67 50 69 44 38 40 42 7 14 9 9 2 34 23 37 35 37 13 24 35 18 44 38 38 41 34 51 39 48 46 30 37
43 46 48 50 51 56 54 60 51 58 53 56 62 63 63 58 65 61 37 39 44 16 11 10 11 15 58 34 39 64 37 42 37 37 11 21 18 22 27 51 49 32 18 31 32 27 23
47 46 46 50 51 51 63 48 52 56 58 59 62 65 65 72 64 25 33 36 23 11 12 15 14 36 35 73 33 36 16 20 31 18 20 43 48 27 47 46 37 40 25 40 37 28 38
45 43 49 49 50 52 55 54 59 56 60 61 65 65 64 66 41 26 27 35 9 7 16 15 39 33 54 48 27 7 10 10 14 8 8 15 31 20 27 17 10 14 30 20 29 29 39
47 48 51 47 55 55 53 58 54 57 59 63 66 68 67 44 14 18 24 10 7 9 16 18 34 64 18 32 10 9 17 15 7 17 21 8 17 7 12 27 8 14 9 6 15 10 24
45 49 53 49 57 52 53 55 56 59 58 65 69 71 54 20 18 13 20 7 12 11 12 33 38 13 30 13 12 14 9 7 7 9 9 6 11 11 14 16 38 12 14 6 11 6 4
47 47 51 52 56 50 52 59 56 63 62 62 71 68 28 19 26 20 3 11 10 10 18 13 13 9 24 47 29 4 8 5 9 8 12 8 24 10 10 12 23 19 14 4 8 4 9
45 49 50 46 55 48 49 56 54 55 56 61 61 28 17 25 28 6 5 12 15 28 33 7 16 23 33 28 14 7 9 16 7 21 7 15 9 16 9 3 7 13 13 11 10 8 5
44 49 54 52 51 48 47 51 54 51 52 65 27 5 30 43 8 5 6 9 15 33 35 15 11 25 23 23 15 9 11 7 31 17 26 9 9 9 35 7 11 7 8 7 7 5 3
42 46 53 53 46 46 50 48 48 45 51 56 30 23 22 21 3 7 10 12 12 10 10 8 9 11 16 13 17 11 8 13 25 29 11 10 8 17 20 4 8 6 6 7 9 5 10
45 46 48 54 45 45 45 52 45 41 49 43 14 6 13 11 11 6 12 11 10 17 15 13 20 27 17 26 10 22 32 15 35 34 39 10 6 11 13 26 22 13 17 6 8 7 7
44 47 46 47 43 44 43 46 46 39 45 40 6 7 13 7 10 11 4 6 21 9 11 13 11 8 22 19 35 10 13 37 18 22 7 6 10 3 20 24 4 9 10 16 12 5 4
44 47 46 47 45 45 45 40 41 41 43 29 7 11 12 14 19 9 8 8 27 16 5 27 12 29 30 27 34 51 39 34 20 5 6 4 9 8 11 6 22 24 29 25 16 16 8
48 48 48 45 45 46 44 43 37 35 37 20 19 27 20 15 7 3 7 11 26 36 24 20 30 37 34 33 39 63 71 66 41 36 27 5 4 10 9 1 6 9 14 16 12 17 5
49 48 47 46 44 44 42 37 36 35 32 28 28 22 10 10 4 11 27 42 35 30 26 58 56 12 31 81 88 49 37 27 21 19 15 5 3 4 9 12 10 2 3 2 15 15 14
51 50 50 50 44 47 41 37 34 36 29 30 26 16 9 9 16 28 17 20 36 39 29 31 51 42 61 39 10 14 10 7 5 6 14 19 5 5 3 5 1 3 10 9 7 6 20
53 57 51 52 44 47 42 38 35 35 33 29 23 23 16 13 9 14 26 15 10 8 10 17 47 49 26 6 5 7 7 8 10 13 11 10 8 4 7 7 2 5 14 20 1 5 12
58 58 56 56 46 46 42 39 35 34 32 30 28 21 16 19 43 23 8 12 15 9 9 16 29 18 23 9 6 5 8 6 9 12 9 4 4 4 6 5 7 12 24 14 9 9 22
64 60 57 61 49 46 44 38 38 35 34 30 31 26 25 21 55 54 33 23 27 29 7 27 20 8 8 11 5 6 5 7 7 7 11 6 7 5 4 7 5 35 6 9 7 20 29
67 63 61 63 54 47 44 37 38 35 33 31 27 23 28 34 49 64 70 61 56 50 41 10 6 5 6 5 5 5 6 6 6 7 8 7 5 6 7 3 6 14 14 12 22 20 22
Wind_Direction_500mb
9 15 2 3 1 356 358 352 352 352 348 351 349 344 345 343 341 339 337 334 329 327 327 327 326 321 323 293 262 284 290 273 265 275 289 282 252 229 238 220 228 243 233 257 248 247 253
5 7 4 1 355 353 354 347 349 347 344 344 342 341 344 338 338 335 333 329 328 326 325 325 321 315 307 268 283 300 296 298 296 293 287 281 259 260 260 236 228 251 252 248 247 253 250
4 1 359 356 351 355 356 344 340 341 341 340 340 336 337 335 335 334 331 327 326 323 323 322 317 307 284 260 286 291 292 295 299 300 309 306 271 253 276 254 250 266 269 264 258 233 249
359 1 359 352 351 346 349 348 349 346 337 337 335 339 333 337 332 331 329 324 321 321 321 320 315 300 268 286 298 300 303 298 286 296 305 311 305 253 248 249 278 271 228 248 246 228 218
359 355 354 352 348 348 345 340 340 342 339 339 331 328 335 333 332 328 327 323 321 323 326 320 314 294 278 293 299 273 275 315 307 299 292 295 301 264 241 235 243 236 248 237 259 216 202
357 354 353 344 341 344 340 340 343 343 335 333 328 337 333 332 329 328 327 323 328 332 319 334 311 295 268 289 296 291 289 296 311 311 315 271 276 254 240 222 227 229 229 239 242 201 198
352 348 349 342 344 343 344 334 334 338 336 332 331 332 330 331 330 328 328 336 351 336 323 297 282 275 282 301 303 306 304 301 285 270 245 278 226 233 236 226 238 249 240 248 236 215 210
343 346 339 345 344 340 337 342 336 340 336 331 336 330 328 331 329 332 332 338 335 312 305 300 289 280 282 283 292 310 301 201 207 264 243 256 238 244 260 276 254 236 244 242 252 210 229
344 342 340 337 339 345 338 339 329 338 333 329 333 329 329 333 330 335 331 335 329 325 299 301 302 282 316 324 260 294 270 225 214 257 249 232 251 262 242 255 261 258 228 234 237 209 235
341 342 334 331 336 340 341 338 336 332 333 333 334 333 334 335 336 326 335 332 331 329 305 276 310 316 3 333 281 318 274 239 235 239 262 234 248 244 239 235 235 257 242 236 238 237 239
342 332 338 332 335 331 328 331 334 333 326 331 329 330 334 335 321 323 328 332 330 336 333 288 308 318 314 310 297 296 292 271 254 259 249 239 234 223 229 234 229 246 268 276 235 233 246
333 336 328 330 327 331 337 341 334 331 326 329 328 330 335 331 324 325 327 332 325 43 261 303 318 321 321 316 310 286 273 236 280 264 235 248 255 251 240 252 239 227 239 261 250 243 247
328 329 326 329 323 329 335 334 332 333 329 330 329 331 334 326 317 331 328 335 23 129 326 297 321 315 316 298 298 276 271 271 277 284 261 256 253 253 217 227 162 190 208 230 216 217 237
328 329 325 328 329 329 329 335 330 332 334 329 328 331 335 328 311 330 342 42 106 241 257 305 314 310 282 303 301 303 291 291 216 233 264 293 323 153 189 226 161 181 201 209 232 213 219
321 322 325 327 327 327 329 332 332 333 335 329 330 332 336 324 308 324 339 42 217 226 297 324 319 309 311 288 313 304 246 276 313 327 307 299 267 272 251 204 199 197 228 140 346 339 99
319 322 322 323 329 326 330 329 334 331 340 328 335 335 329 309 312 320 69 245 233 229 320 330 291 247 296 309 317 278 315 273 283 300 317 285 295 244 301 176 191 185 152 160 186 273 221
314 318 317 321 327 325 328 330 334 333 337 329 335 328 315 301 309 312 212 235 280 287 326 204 249 283 288 313 282 284 273 292 329 319 358 279 227 288 330 300 192 166 178 182 187 202 97
314 317 316 325 323 322 325 331 336 339 335 336 340 292 312 306 333 325 263 207 283 299 313 265 265 269 286 329 304 292 296 291 329 338 320 264 288 288 289 267 201 249 155 143 152 175 120
308 313 312 324 322 323 325 330 331 331 335 335 322 289 301 310 275 283 267 272 262 293 271 304 276 276 315 310 313 280 285 300 326 342 311 310 320 319 332 4 106 322 199 165 110 87 192
302 309 309 322 318 318 321 328 329 331 336 338 317 313 315 287 275 253 296 269 289 296 270 251 271 290 311 306 246 285 287 297 318 302 307 336 287 211 279 291 305 303 7 7 152 147 180
298 306 309 316 319 318 320 324 323 327 338 346 291 268 290 299 306 274 259 248 299 301 243 291 302 229 323 307 309 242 255 301 305 298 339 70 279 260 288 298 294 24 19 30 67 18 167
298 300 304 309 318 311 322 319 320 328 336 342 280 314 303 271 285 268 278 270 290 294 258 303 234 283 304 285 276 292 300 297 298 332 4 354 292 315 294 49 72 54 31 46 48 19 38
293 297 300 304 311 315 311 325 316 321 335 330 311 305 288 273 285 291 275 277 293 304 299 255 284 301 296 276 270 282 278 275 263 273 280 264 286 345 274 64 253 32 13 20 80 39 343
291 293 296 297 307 309 306 317 311 314 325 316 304 302 267 272 196 262 295 293 290 289 275 286 295 269 286 306 303 287 268 269 262 253 213 228 73 249 282 339 47 177 329 286 91 52 29
289 289 292 295 301 309 303 308 302 309 319 311 296 294 266 273 257 295 311 297 301 294 281 273 288 304 312 311 305 336 340 12 332 240 204 204 170 287 350 31 195 7 11 352 2 26 21
288 284 286 288 295 304 299 300 297 301 314 307 298 288 261 290 258 287 301 285 286 291 301 259 314 328 338 293 331 335 326 328 348 346 16 167 208 351 338 70 32 305 326 321 349 4 11
285 285 282 284 286 293 295 298 291 296 311 299 293 295 261 263 280 267 258 284 286 302 271 302 334 335 1 355 348 326 305 337 355 352 338 7 12 202 288 94 323 343 318 328 62 274 351
285 286 278 277 280 283 291 291 289 282 299 292 294 296 261 266 281 276 267 252 275 291 273 304 336 350 348 14 49 305 308 300 347 333 334 8 325 13 5 59 317 342 10 64 285 320 338
286 281 279 274 275 275 285 287 287 276 288 286 283 294 287 254 267 283 285 282 275 271 271 268 262 294 312 15 350 325 315 319 352 332 357 26 1 348 9 81 95 58 77 358 357 326 341
Wind_Speed_850mb
34 36 36 37 38 41 38 43 46 48 54 53 54 60 59 60 61 63 67 68 70 71 69 65 55 53 53 32 59 76 67 48 45 38 37 31 31 24 30 12 21 26 13 21 43 62 54
35 34 38 39 37 35 41 46 47 46 48 53 54 61 58 60 61 64 67 67 71 72 71 69 63 54 55 52 57 36 26 56 58 57 49 33 29 32 34 14 26 11 14 50 57 44 26
36 40 38 39 44 40 34 42 44 45 49 52 54 57 57 60 63 66 68 71 73 71 71 72 65 57 60 93 74 70 59 60 34 17 36 34 48 40 16 13 50 38 34 30 42 12 19
39 38 36 41 40 44 42 43 46 43 50 55 55 54 59 57 64 65 67 74 77 75 76 66 48 43 44 55 51 47 35 25 16 33 57 41 30 56 63 51 36 8 7 23 23 33 14
36 36 39 39 44 44 46 48 47 46 49 51 55 58 55 60 63 67 72 77 79 81 60 28 62 24 36 26 25 15 12 56 73 69 70 59 44 45 40 40 34 34 39 38 27 11 16
38 42 39 40 42 44 45 51 51 48 53 52 62 57 59 59 66 69 73 78 81 55 18 54 20 18 22 25 52 79 68 56 44 51 51 38 14 20 30 33 43 49 46 44 43 13 23
45 42 47 47 46 44 49 46 53 49 51 54 57 57 58 61 63 69 73 83 44 23 60 37 78 69 93 67 57 48 50 41 20 6 7 11 14 37 57 54 51 40 42 38 25 18 28
45 45 48 49 48 45 44 48 54 51 52 59 59 56 60 61 65 65 59 65 28 41 51 63 76 74 71 52 34 58 20 18 12 17 9 7 31 48 38 42 45 51 52 48 35 17 23
44 45 46 54 53 56 47 53 46 50 51 60 63 58 59 64 68 53 73 30 36 49 21 49 33 30 19 3 19 57 20 30 13 17 32 28 25 21 39 47 50 44 50 54 33 12 34
46 42 44 48 48 59 49 54 54 56 55 58 63 58 63 67 50 69 44 38 40 42 7 14 9 9 2 34 23 37 35 37 13 24 35 18 44 38 38 41 34 51 39 48 46 30 37
43 46 48 50 51 56 54 60 51 58 53 56 62 63 63 58 65 61 37 39 44 16 11 10 11 15 58 34 39 64 37 42 37 37 11 21 18 22 27 51 49 32 18 31 32 27 23
47 46 46 50 51 51 63 48 52 56 58 59 62 65 65 72 64 25 33 36 23 11 12 15 14 36 35 73 33 36 16 20 31 18 20 43 48 27 47 46 37 40 25 40 37 28 38
45 43 49 49 50 52 55 54 59 56 60 61 65 65 64 66 41 26 27 35 9 7 16 15 39 33 54 48 27 7 10 10 14 8 8 15 31 20 27 17 10 14 30 20 29 29 39
47 48 51 47 55 55 53 58 54 57 59 63 66 68 67 44 14 18 24 10 7 9 16 18 34 64 18 32 10 9 17 15 7 17 21 8 17 7 12 27 8 14 9 6 15 10 24
45 49 53 49 57 52 53 55 56 59 58 65 69 71 54 20 18 13 20 7 12 11 12 33 38 13 30 13 12 14 9 7 7 9 9 6 11 11 14 16 38 12 14 6 11 6 4
47 47 51 52 56 50 52 59 56 63 62 62 71 68 28 19 26 20 3 11 10 10 18 13 13 9 24 47 29 4 8 5 9 8 12 8 24 10 10 12 23 19 14 4 8 4 9
45 49 50 46 55 48 49 56 54 55 56 61 61 28 17 25 28 6 5 12 15 28 33 7 16 23 33 28 14 7 9 16 7 21 7 15 9 16 9 3 7 13 13 11 10 8 5
44 49 54 52 51 48 47 51 54 51 52 65 27 5 30 43 8 5 6 9 15 33 35 15 11 25 23 23 15 9 11 7 31 17 26 9 9 9 35 7 11 7 8 7 7 5 3
42 46 53 53 46 46 50 48 48 45 51 56 30 23 22 21 3 7 10 12 12 10 10 8 9 11 16 13 17 11 8 13 25 29 11 10 8 17 20 4 8 6 6 7 9 5 10
45 46 48 54 45 45 45 52 45 41 49 43 14 6 13 11 11 6 12 11 10 17 15 13 20 27 17 26 10 22 32 15 35 34 39 10 6 11 13 26 22 13 17 6 8 7 7
44 47 46 47 43 44 43 46 46 39 45 40 6 7 13 7 10 11 4 6 21 9 11 13 11 8 22 19 35 10 13 37 18 22 7 6 10 3 20 24 4 9 10 16 12 5 4
44 47 46 47 45 45 45 40 41 41 43 29 7 11 12 14 19 9 8 8 27 16 5 27 12 29 30 27 34 51 39 34 20 5 6 4 9 8 11 6 22 24 29 25 16 16 8
48 48 48 45 45 46 44 43 37 35 37 20 19 27 20 15 7 3 7 11 26 36 24 20 30 37 34 33 39 63 71 66 41 36 27 5 4 10 9 1 6 9 14 16 12 17 5
49 48 47 46 44 44 42 37 36 35 32 28 28 22 10 10 4 11 27 42 35 30 26 58 56 12 31 81 88 49 37 27 21 19 15 5 3 4 9 12 10 2 3 2 15 15 14
51 50 50 50 44 47 41 37 34 36 29 30 26 16 9 9 16 28 17 20 36 39 29 31 51 42 61 39 10 14 10 7 5 6 14 19 5 5 3 5 1 3 10 9 7 6 20
53 57 51 52 44 47 42 38 35 35 33 29 23 23 16 13 9 14 26 15 10 8 10 17 47 49 26 6 5 7 7 8 10 13 11 10 8 4 7 7 2 5 14 20 1 5 12
58 58 56 56 46 46 42 39 35 34 32 30 28 21 16 19 43 23 8 12 15 9 9 16 29 18 23 9 6 5 8 6 9 12 9 4 4 4 6 5 7 12 24 14 9 9 22
64 60 57 61 49 46 44 38 38 35 34 30 31 26 25 21 55 54 33 23 27 29 7 27 20 8 8 11 5 6 5 7 7 7 11 6 7 5 4 7 5 35 6 9 7 20 29
67 63 61 63 54 47 44 37 38 35 33 31 27 23 28 34 49 64 70 61 56 50 41 10 6 5 6 5 5 5 6 6 6 7 8 7 5 6 7 3 6 14 14 12 22 20 22
Wind_Direction_850mb
9 15 2 3 1 356 358 352 352 352 348 351 349 344 345 343 341 339 337 334 329 327 327 327 326 321 323 293 262 284 290 273 265 275 289 282 252 229 238 220 228 243 233 257 248 247 253
5 7 4 1 355 353 354 347 349 347 344 344 342 341 344 338 338 335 333 329 328 326 325 325 321 315 307 268 283 300 296 298 296 293 287 281 259 260 260 236 228 251 252 248 247 253 250
4 1 359 356 351 355 356 344 340 341 341 340 340 336 337 335 335 334 331 327 326 323 323 322 317 307 284 260 286 291 292 295 299 300 309 306 271 253 276 254 250 266 269 264 258 233 249
359 1 359 352 351 346 349 348 349 346 337 337 335 339 333 337 332 331 329 324 321 321 321 320 315 300 268 286 298 300 303 298 286 296 305 311 305 253 248 249 278 271 228 248 246 228 218
359 355 354 352 348 348 345 340 340 342 339 339 331 328 335 333 332 328 327 323 321 323 326 320 314 294 278 293 299 273 275 315 307 299 292 295 301 264 241 235 243 236 248 237 259 216 202
357 354 353 344 341 344 340 340 343 343 335 333 328 337 333 332 329 328 327 323 328 332 319 334 311 295 268 289 296 291 289 296 311 311 315 271 276 254 240 222 227 229 229 239 242 201 198
352 348 349 342 344 343 344 334 334 338 336 332 331 332 330 331 330 328 328 336 351 336 323 297 282 275 282 301 303 306 304 301 285 270 245 278 226 233 236 226 238 249 240 248 236 215 210
343 346 339 345 344 340 337 342 336 340 336 331 336 330 328 331 329 332 332 338 335 312 305 300 289 280 282 283 292 310 301 201 207 264 243 256 238 244 260 276 254 236 244 242 252 210 229
344 342 340 337 339 345 338 339 329 338 333 329 333 329 329 333 330 335 331 335 329 325 299 301 302 282 316 324 260 294 270 225 214 257 249 232 251 262 242 255 261 258 228 234 237 209 235
341 342 334 331 336 340 341 338 336 332 333 333 334 333 334 335 336 326 335 332 331 329 305 276 310 316 3 333 281 318 274 239 235 239 262 234 248 244 239 235 235 257 242 236 238 237 239
342 332 338 332 335 331 328 331 334 333 326 331 329 330 334 335 321 323 328 332 330 336 333 288 308 318 314 310 297 296 292 271 254 259 249 239 234 223 229 234 229 246 268 276 235 233 246
333 336 328 330 327 331 337 341 334 331 326 329 328 330 335 331 324 325 327 332 325 43 261 303 318 321 321 316 310 286 273 236 280 264 235 248 255 251 240 252 239 227 239 261 250 243 247
328 329 326 329 323 329 335 334 332 333 329 330 329 331 334 326 317 331 328 335 23 129 326 297 321 315 316 298 298 276 271 271 277 284 261 256 253 253 217 227 162 190 208 230 216 217 237
328 329 325 328 329 329 329 335 330 332 334 329 328 331 335 328 311 330 342 42 106 241 257 305 314 310 282 303 301 303 291 291 216 233 264 293 323 153 189 226 161 181 201 209 232 213 219
321 322 325 327 327 327 329 332 332 333 335 329 330 332 336 324 308 324 339 42 217 226 297 324 319 309 311 288 313 304 246 276 313 327 307 299 267 272 251 204 199 197 228 140 346 339 99
319 322 322 323 329 326 330 329 334 331 340 328 335 335 329 309 312 320 69 245 233 229 320 330 291 247 296 309 317 278 315 273 283 300 317 285 295 244 301 176 191 185 152 160 186 273 221
314 318 317 321 327 325 328 330 334 333 337 329 335 328 315 301 309 312 212 235 280 287 326 204 249 283 288 313 282 284 273 292 329 319 358 279 227 288 330 300 192 166 178 182 187 202 97
314 317 316 325 323 322 325 331 336 339 335 336 340 292 312 306 333 325 263 207 283 299 313 265 265 269 286 329 304 292 296 291 329 338 320 264 288 288 289 267 201 249 155 143 152 175 120
308 313 312 324 322 323 325 330 331 331 335 335 322 289 301 310 275 283 267 272 262 293 271 304 276 276 315 310 313 280 285 300 326 342 311 310 320 319 332 4 106 322 199 165 110 87 192
302 309 309 322 318 318 321 328 329 331 336 338 317 313 315 287 275 253 296 269 289 296 270 251 271 290 311 306 246 285 287 297 318 302 307 336 287 211 279 291 305 303 7 7 152 147 180
298 306 309 316 319 318 320 324 323 327 338 346 291 268 290 299 306 274 259 248 299 301 243 291 302 229 323 307 309 242 255 301 305 298 339 70 279 260 288 298 294 24 19 30 67 18 167
298 300 304 309 318 311 322 319 320 328 336 342 280 314 303 271 285 268 278 270 290 294 258 303 234 283 304 285 276 292 300 297 298 332 4 354 292 315 294 49 72 54 31 46 48 19 38
293 297 300 304 311 315 311 325 316 321 335 330 311 305 288 273 285 291 275 277 293 304 299 255 284 301 296 276 270 282 278 275 263 273 280 264 286 345 274 64 253 32 13 20 80 39 343
291 293 296 297 307 309 306 317 311 314 325 316 304 302 267 272 196 262 295 293 290 289 275 286 295 269 286 306 303 287 268 269 262 253 213 228 73 249 282 339 47 177 329 286 91 52 29
289 289 292 295 301 309 303 308 302 309 319 311 296 294 266 273 257 295 311 297 301 294 281 273 288 304 312 311 305 336 340 12 332 240 204 204 170 287 350 31 195 7 11 352 2 26 21
288 284 286 288 295 304 299 300 297 301 314 307 298 288 261 290 258 287 301 285 286 291 301 259 314 328 338 293 331 335 326 328 348 346 16 167 208 351 338 70 32 305 326 321 349 4 11
285 285 282 284 286 293 295 298 291 296 311 299 293 295 261 263 280 267 258 284 286 302 271 302 334 335 1 355 348 326 305 337 355 352 338 7 12 202 288 94 323 343 318 328 62 274 351
285 286 278 277 280 283 291 291 289 282 299 292 294 296 261 266 281 276 267 252 275 291 273 304 336 350 348 14 49 305 308 300 347 333 334 8 325 13 5 59 317 342 10 64 285 320 338
286 281 279 274 275 275 285 287 287 276 288 286 283 294 287 254 267 283 285 282 275 271 271 268 262 294 312 15 350 325 315 319 352 332 357 26 1 348 9 81 95 58 77 358 357 326 341